STARLINK-4615, 53620

Orbit data source: Space-Track

STARLINK-4615, 53620 is a payload satellite owned by SpaceX/Seattle (US) in LEO that was launched on Sun, 28 Aug 2022 UTC via an FALCON 9 launch vehicle from the Air Force Eastern Test Range (AFETR). Payload-class satellites include a variety of spacecraft equipped with specific instruments for various scientific and technological missions. These include communications satellites like Starlink; space stations such as the ISS; scientific satellites like the Hubble; Earth observation satellites from companies like Planet Labs, Umbra, and HawkEye 360; GPS; miniature CubeSats for education and research; and military/defense satellites.

Loading next visibility...
Identifier
53620, 2022-104AJ
Orbit
LEO
Country
Flag of USUS
Related business
Manufacturer
SpaceX/Seattle
Mission
Operational Commercial Communications
Bus & Motor
STARLINK, Unknown motor
Mass
300 kg wet, ~290 kg dry
Launch date (UTC)
2022-08-28 (3 years ago)
Launch vehicle
FALCON 9
Launch site
Air Force Eastern Test Range (AFETR)
Object type
Payload
Rocket body
Debris
Shape & HBR
Box + 1 Pan, 10.1 m
Radar Cross Section
13.562 m², Large (>1 m²)

Expand to show TLE details & history
Last TLE update: 1 day ago

TLE from 1 day ago
0 STARLINK-4615
1 53620U 22104AJ  25301.18530466  .00000466  00000-0  47355-4 0  9993
2 53620  53.2163 108.7931 0001340  89.4674 270.6472 15.08838330175744
Epoch: 2025-10-28T04:26Z
TLE epoch observation values (Epoch: 2025-10-28T04:26:50.322Z)
Latitude
-0°
Longitude
5.307°
Altitude
540.635 km
Speed
7.593 km/s
True Right ascension
07h 15m 10s
True Declination
0° 00' 00"
Sunlit
Object was in daylight at epoch
Visualization orbit readout
Latitude
Unknown
Longitude
Unknown
Altitude
Unknown
Speed
Unknown
Apparent Right ascension
Unknown
Apparent Declination
Unknown
Sunlit
N/A
Visualization observer readout
Local Sidereal Time
00:41:05
Azimuth
Unknown
Elevation
Unknown
Doppler factor
Unknown
Orbital elements
Apogee altitude
540.921 km
Perigee altitude
539.067 km
Semi-major axis
6,918.131 km
Eccentricity
0.00013
Inclination
53.2163°
RAAN
108.7931°
Arg. of periapsis
89.4674°
True anomaly
270.63185°
Mean anomaly
270.6472°
Eccentric anomaly
270.63952°
Mean motion
3.7719 °/min
Orbital period
95.44 mins
BSTAR
0.000047355
Loading maneuver chart data...
Computing Atmospheric mass density...
Loading historical data...
Loading historical data...
Loading historical data...
Loading historical data...
Loading historical data...
Loading historical data...
Loading historical data...

Documentation

Showing up to 5 results
|